Back to catalog

TITAN 34D TRANSTAGE R/B

AliveGEO
NORAD 18584·ROCKET BODY·🇺🇸 United States

Launched Nov 29, 1987 from Cape Canaveral Space Force Station

Loading…

TLE

FreshSource: Space-Track

Epoch: Sep 14, 2026, 04:47 UTC

1 18584U 87097B   26257.19962549 -.00000270  00000-0  00000-0 0  9994
2 18584  10.7083 333.1597 0009209 274.5183  85.3711  1.01242313 26356

Track TITAN 34D TRANSTAGE R/B in real time with AllMySat

Download on the App Store